カタログに戻る

STARLINK-30285

運用中通信VLEO
NORAD 57840·PAYLOAD·🇺🇸 United States

打ち上げ Sep 12, 2023 から Vandenberg Space Force Base

Loading…

次のパス (今後24時間)

TLE

最新Source: CelesTrak SupGP

元期: Sep 15, 2026, 01:37 UTC

1 57840C 23141A   26258.06784722  .00039755  00000+0  12787-2 0  2587
2 57840  53.1580 123.0527 0001124  81.9817 245.5252 15.31676668    15

AllMySatでSTARLINK-30285をリアルタイム追跡

Download on the App Store